Location: Unspecified
(42.2710°N, 0.0000°E)
Time: 11:55:40
(UTC+00:00)

ACS3 Solar Sail - Visible Passes

Search period start: 04 April 2026 00:00
Search period end: 14 April 2026 00:00
Orbit: 874 x 980 km, 97.2° (Epoch: 29 March)

Date Brightness Start Highest point End Pass type
(mag) Time Alt. Az. Time Alt. Az. Time Alt. Az.
4 Apr 4.2 00:02:06 10° NE 00:02:56 12° NE 00:02:56 12° NE visible
4 Apr 2.9 01:43:01 10° N 01:46:33 38° N 01:46:33 38° N visible
4 Apr 3.8 03:28:32 10° NW 03:30:08 11° NW 03:30:08 11° NW visible
5 Apr 4.0 00:11:46 10° NE 00:13:21 16° NE 00:13:21 16° NE visible
5 Apr 2.8 01:53:14 10° N 01:56:57 38° NNW 01:56:57 38° NNW visible
6 Apr 3.8 00:21:32 10° NE 00:23:40 19° NE 00:23:40 19° NE visible
6 Apr 2.8 02:03:26 10° N 02:07:17 36° NNW 02:07:17 36° NNW visible
7 Apr 3.6 00:31:19 10° NNE 00:33:58 23° NE 00:33:58 23° NE visible
7 Apr 2.8 02:13:37 10° N 02:17:34 33° NW 02:17:34 33° NW visible
8 Apr 3.4 00:41:08 10° NNE 00:44:12 28° NE 00:44:12 28° NE visible
8 Apr 2.9 02:23:47 10° N 02:27:47 30° NW 02:27:47 30° NW visible
9 Apr 3.2 00:50:56 10° NNE 00:54:22 33° NE 00:54:22 33° NE visible
9 Apr 3.1 02:33:56 10° N 02:37:57 26° NW 02:37:57 26° NW visible
10 Apr 2.9 01:00:43 10° NNE 01:04:28 38° NE 01:04:28 38° NE visible
10 Apr 3.2 02:44:05 10° NNW 02:48:03 22° NW 02:48:03 22° NW visible
11 Apr 2.7 01:10:29 10° NNE 01:14:31 44° NNE 01:14:31 44° NNE visible
11 Apr 3.4 02:54:14 10° NNW 02:58:05 19° WNW 02:58:05 19° WNW visible
11 Apr 4.2 23:40:31 10° ENE 23:40:56 11° ENE 23:40:56 11° ENE visible
12 Apr 2.5 01:20:13 10° NNE 01:24:30 49° NNE 01:24:30 49° NNE visible
12 Apr 3.5 03:04:28 10° NNW 03:07:54 16° WNW 03:08:04 16° WNW visible
12 Apr 4.0 23:49:22 10° NE 23:50:52 14° ENE 23:50:52 14° ENE visible
13 Apr 2.4 01:29:57 10° N 01:34:26 52° N 01:34:26 52° N visible
13 Apr 3.7 03:14:49 10° NNW 03:17:26 13° WNW 03:18:00 13° WNW visible
